Other Public Products
Issued by NWS Grand Forks, ND

Home | Current Version | Previous Version | Graphics & Text | Print | Product List | Glossary On
Versions: 1 2 3 4 5 6 7 8 9 10 11 12 13 14 15 16 17 18 19 20 21 22 23 24 25 26 27 28 29 30 31 32 33 34 35 36 37 38 39 40 41 42 43 44 45 46 47 48 49 50
000
FPUS83 KFGF 132110
OPUFGF
PRAIRIE TO PINES WEATHER ROUNDUP
NATIONAL WEATHER SERVICE EASTERN NORTH DAKOTA/GRAND FORKS ND
400 PM CDT SUN JUL 13 2014

 **SATELLITE DATA USED TO AUGMENT SKY COVER AT AUTOMATED STATIONS**
 *****  WEATHER ACROSS EASTERN NORTH DAKOTA  *****

CITY           SKY/WX    TMP DP  RH WIND       PRES   REMARKS
GRAND FORKS    PTSUNNY   68  48  48 NW20G26   29.91S
GRAND FORKS AF MOSUNNY   69  47  45 NW17G30   29.93R
GRAND CITY NWS   N/A     70 N/A N/A NW16        N/A
BUXTON         NOT AVBL
DEVILS LAKE    CLOUDY    66  45  45 NW20G30   29.96R
FARGO          PTSUNNY   77  44  30 W23G31    29.92S
WAHPETON ARPT  CLEAR     73  36  25 NW14G26   29.94F
$$

 *****  WEATHER ACROSS CENTRAL AND WESTERN NORTH DAKOTA  *****

CITY           SKY/WX    TMP DP  RH WIND       PRES   REMARKS
JAMESTOWN      MOSUNNY   73  42  32 NW21G33   29.98S
BISMARCK       SUNNY     76  41  28 NW18G30   30.06F
MINOT          SUNNY     72  42  34 NW22G32   30.04S
MINOT AFB      SUNNY     72  43  35 NW28G33   30.03R
GARRISON         N/A     72  43  35 NW20G29   30.06F
WILLISTON      SUNNY     79  34  19 NW24G31   30.13S
DICKINSON      SUNNY     75  39  27 NW17G28   30.11S
HETTINGER      SUNNY     78  43  28 NW25G32   30.13S
$$

 *****  OTHER OBSERVATIONS NORTHEAST NORTH DAKOTA  *****

CITY           SKY/WX    TMP DP  RH WIND       PRES   REMARKS
WALHALLA         N/A     64  48  55 NW15G25     N/A
LANGDON        MOCLDY    64  46  52 NW24G31   29.95S
CAVALIER       MOCLDY    64  46  52 N16       29.92S
GRAFTON        MOCLDY    66  48  52 NW22G29   29.91S
CANDO          CLOUDY    64  46  52 NW22G31   29.98S
FORT TOTTEN      N/A     69  47  45 NW10      29.95
ROLLA          MOCLDY    63  46  55 NW22G33   30.00S
RUGBY          FAIR      66  46  48 NW26G32   29.99S
 ***** THE ABOVE OBSERVATIONS ARE NON NWS ARE NOT QUALITY
        CONTROLLED AND MAY MIS-REPORT RAIN FOR SNOW...
$$

 *****  OTHER OBSERVATIONS SOUTHEAST NORTH DAKOTA *****

CITY           SKY/WX    TMP DP  RH WIND       PRES   REMARKS
COOPERSTOWN    NOT AVBL
VALLEY CITY    FAIR      73  41  31 NW28G35   29.96S
OAKES          NOT AVBL
GWINNER        PTCLDY    75  45  33 NW21      29.98F
BUFFALO        NOT AVBL
WYNDMERE       NOT AVBL
 ***** THE ABOVE OBSERVATIONS ARE NON NWS ARE NOT QUALITY
       CONTROLLED AND MAY MIS-REPORT RAIN FOR SNOW...
$$

  *****  WEATHER ACROSS NORTHERN MINNESOTA  *****

CITY           SKY/WX    TMP DP  RH WIND       PRES   REMARKS
FLAG ISLAND    LGT RAIN  55  52  88 W16       29.83S
WARROAD        DRIZZLE   57  54  88 W10G17    29.87S
ROSEAU         LGT RAIN  55  50  82 NW18G28   29.88S
HALLOCK        PTSUNNY   64  46  52 NW23G31   29.89S
THF RVR FALLS  CLOUDY    64  48  55 NW17      29.91S
HALSTAD          N/A     71  41  33 NW16G28     N/A
FOSSTON        PTSUNNY   66  46  48 NW15G21   29.91F
BAUDETTE       CLOUDY    58  51  78 NW9       29.85F
WASKISH        CLOUDY    64  50  59 W15G23    29.86S
CROOKSTON      CLOUDY    66  48  52 NW17G24   29.92R
$$
  *****  WEATHER ACROSS CENTRAL AND WEST MINNESOTA  *****

CITY           SKY/WX    TMP DP  RH WIND       PRES   REMARKS
BEMIDJI        CLOUDY    67  45  45 NW25G32   29.89R
PARK RAPIDS    MOSUNNY   70  45  40 W17       29.90F
WADENA         MOSUNNY   70  46  43 W12G21    29.91F
DETROIT LAKES  SUNNY     70  45  40 NW14G25   29.93F
MOORHEAD       MOSUNNY   73  34  23 NW20G26   29.92F
FERGUS FALLS   MOSUNNY   73  37  27 NW22G30   29.92F
ELBOW LAKE     FAIR      73  45  35 W14G23    29.93F
MORRIS MN      SUNNY     73  46  38 NW16G23   29.94F
STAPLES        MOSUNNY   70  43  37 NW12G25   29.91F
WHEATON        SUNNY     72  43  35 NW16G24   29.96F
$$
  *****  WEATHER ELSEWHERE ACROSS MINNESOTA  *****

CITY           SKY/WX    TMP DP  RH WIND       PRES   REMARKS
DULUTH         PTSUNNY   70  46  42 W22       29.85S
INTRNTL FALLS  LGT RAIN  57  51  80 NW21G26   29.83R
ELY            PTSUNNY   66  45  45 W20G33    29.80S
CLOQUET        PTSUNNY   70  45  40 W14G21    29.86F
BRAINERD       CLOUDY    77  43  29 NW14G24   29.90F
HIBBING        CLOUDY    68  45  43 W12G22    29.84F
ALEXANDRIA     MOSUNNY   74  43  32 NW14G22   29.95F
SAINT CLOUD    MOSUNNY   77  45  32 W13G22    29.91F
MINNEAPOLIS    MOSUNNY   75  52  44 W14G25    29.91F
$$

  *****  WEATHER ACROSS SOUTH DAKOTA  *****

CITY           SKY/WX    TMP DP  RH WIND       PRES   REMARKS
SIOUX FALLS    MOSUNNY   83  58  42 W15       29.98F
BROOKINGS      NOT AVBL
WATERTOWN      MOSUNNY   75  51  43 NW16      29.99F
HURON          MOSUNNY   81  58  45 NW14G24   29.99F
SISSETON         N/A     76  45  33 N17G26    29.95F
ABERDEEN       SUNNY     77  43  29 NW18G29   29.99F
MITCHELL       MOSUNNY   85  58  39 W17G25    29.99F
PIERRE         NOT AVBL
MOBRIDGE       SUNNY     75  50  41 NW17      30.03F
RAPID CITY     SUNNY     84  51  31 NW7       30.14F
$$

  *****  SOME WEATHER IN NEARBY STATES *****

CITY           SKY/WX    TMP DP  RH WIND       PRES   REMARKS
GLASGOW MT     NOT AVBL
GREAT FALLS MT NOT AVBL
CHEYENNE WY    PTSUNNY   68  54  60 E7        30.34F
SCOTTSBLUFF NE CLOUDY    83  59  44 NE5       30.19F
OMAHA NE       PTSUNNY   87  64  46 NW6       29.99F
DES MOINES IA  MOSUNNY   85  64  49 NW15G24   29.96S
DAVENPORT IA     N/A     82  68  62 W8        29.94F
CHICAGO IL     MOSUNNY   85  57  38 NW13      29.89F
EAU CLAIRE WI  MOSUNNY   75  47  36 W13       29.90F
LA CROSSE WI   SUNNY     79  51  37 NW10      29.91S
$$

  *****  SOME NATIONAL WEATHER *****

CITY           SKY/WX    TMP DP  RH WIND       PRES   REMARKS
LA GUARDIA NY  PTSUNNY   77  69  76 S22G30    29.92F
RALEIGH NC     MOSUNNY   93  64  38 S9        30.03F HX  94
ATLANTA GA     LGT RAIN  86  69  56 CALM      30.08F HX  90
NEW ORLEANS LA PTSUNNY   88  75  65 SW7       30.04F HX  97
OKLAHOMA CITY  MOSUNNY   99  59  26 SW12      30.00F HX  99
ALBUQUERQUE NM LGT RAIN  81  56  42 E8        30.23F
SALT LAKE CITY MOSUNNY   97  41  14 NW10      30.13F HX  92
LOS ANGELES CA MOSUNNY   74  63  68 W13       29.91F
BOISE ID       NOT AVBL
SEATTLE WA     PTSUNNY   81  57  43 W7        30.07F
$$

*** WEATHER ACROSS MANITOBA...SASKATCHEWAN AND ONTARIO ***
                ***ONTARIO***

CITY           SKY/WX    TMP DP  RH WIND       PRES   REMARKS
GERALDTON      CLOUDY    63  48  59 W6        29.70R
THUNDER BAY    MOSUNNY   68  54  60 SW13G23   29.74R
SIOUX LOOKOUT  LGT RAIN  55  48  76 NW12G18   29.74R
TORONTO        MOSUNNY   84  63  48 W17G24    29.78S
BIG TROUT LK   LGT RAIN  55  52  88 NE6       29.69R
PICKLE LAKE    NOT AVBL
DRYDEN         PTSUNNY   54  50  87 W10       29.76F
KENORA         LGT RAIN  54  50  87 W8        29.81S
$$
                *** MANITOBA***

CITY           SKY/WX    TMP DP  RH WIND       PRES   REMARKS
BRANDON        PTSUNNY   63  46  55 NW21G30   29.99S
DAUPHIN        CLOUDY    59  48  67 NW15G28   29.99R
ISLAND LAKE    PTSUNNY   52  45  76 N12G17    29.81R
PILOT MOUND      N/A     61  48  63 NW21G30     N/A
THE PAS        PTSUNNY   59  50  72 NW16      30.03R
THOMPSON       PTSUNNY   57  52  82 N18G24    29.96R
WINNIPEG       LGT RAIN  57  52  82 NW20G28   29.89F
LYNN LAKE      CLOUDY    59  46  63 N17G30    30.15R
CHURCHILL      CLOUDY    45  41  87 NE21      30.10R
GILLAM         CLOUDY    55  50  82 NE17G29   29.92R
$$
                ***SASKATCHEWAN***

CITY           SKY/WX    TMP DP  RH WIND       PRES   REMARKS
ESTEVAN        MOSUNNY   68  45  42 NW21G29   30.10S
KINDERSLEY     SUNNY     73  39  29 N12G21    30.24S
LLOYDMINSTER   SUNNY     72  41  33 N8        30.27S
PRINCE ALBERT  MOSUNNY   70  46  43 NE14G25   30.17S
REGINA         MOSUNNY   68  46  45 N20G32    30.14F
YORKTON        CLOUDY    63  45  51 N22G29    30.07R



USA.gov is the U.S. government's official web portal to all federal, state and local government web resources and services.